Location: Austin
(30.3000°N, 97.7500°W)
Time: 02:56:10
(UTC-05:00)

Cosmos 2333 - Pass Details

Date: 18 March 2023
Orbit: 828 x 867 km, 70.9° (Epoch: 01 April)

Event Time Altitude Azimuth Distance (km) Brightness Sun altitude
Rises 21:27:54 0° 342° (NNW) 3,452 7.8 -23.7°
Reaches altitude 10° 21:30:24 10° 345° (NNW) 2,510 7.0 -24.2°
Maximum altitude 21:36:10 71° 70° (ENE) 908 4.1 -25.4°
Enters shadow 21:36:36 68° 103° (ESE) 925 4.1 -25.5°
